This is the latest recevied weather packets stored in our database for station/object W4OTS. If no packets are shown the sender has not sent any weather packets the latest 10 day(s).
| Time | Temp. | Humidity | Pressure | Rain* | Wind** | Luminosity | Snow |
|---|---|---|---|---|---|---|---|
| 1777903027 | 18.33° C | 53% | 1019.7 hPa | 0 mm | - | 599 W/m² | - |
| 1777902723 | 18.33° C | 51% | 1019.5 hPa | 0 mm | - | 594 W/m² | - |
| 1777902421 | 17.78° C | 54% | 1019.3 hPa | 0 mm | - | 585 W/m² | - |
| 1777902117 | 17.78° C | 57% | 1019.5 hPa | 0 mm | - | 563 W/m² | - |
| 1777901816 | 17.22° C | 57% | 1019.5 hPa | 0 mm | - | 525 W/m² | - |
| 1777901513 | 16.67° C | 58% | 1019.4 hPa | 0 mm | - | 493 W/m² | - |
| 1777901210 | 16.67° C | 60% | 1019.3 hPa | 0 mm | - | 453 W/m² | - |
| 1777900907 | 15.56° C | 63% | 1019.4 hPa | 0 mm | - | 442 W/m² | - |
| 1777900605 | 15° C | 68% | 1019.3 hPa | 0 mm | - | 360 W/m² | - |
| 1777900302 | 13.89° C | 69% | 1019.3 hPa | 0 mm | - | 385 W/m² | - |
| 1777899998 | 13.33° C | 72% | 1019.2 hPa | 0 mm | - | 335 W/m² | - |
| 1777899695 | 13.33° C | 73% | 1019.5 hPa | 0 mm | - | 58 W/m² | - |
| 1777899392 | 12.78° C | 74% | 1019.4 hPa | 0 mm | - | 56 W/m² | - |
| 1777899090 | 12.22° C | 76% | 1019.2 hPa | 0 mm | - | 54 W/m² | - |
| 1777898787 | 12.22° C | 77% | 1019.4 hPa | 0 mm | - | 52 W/m² | - |
| 1777898484 | 11.67° C | 79% | 1019.3 hPa | 0 mm | - | 51 W/m² | - |
| 1777898182 | 11.11° C | 81% | 1019.4 hPa | 0 mm | - | 49 W/m² | - |
| 1777897879 | 10.56° C | 82% | 1019.4 hPa | 0 mm | - | 47 W/m² | - |
| 1777897575 | 10° C | 82% | 1019.4 hPa | 0 mm | - | 46 W/m² | - |
| 1777897270 | 9.44° C | 84% | 1019.5 hPa | 0 mm | - | 44 W/m² | - |
| 1777896967 | 9.44° C | 84% | 1019.3 hPa | 0 mm | - | 42 W/m² | - |
| 1777896664 | 8.89° C | 85% | 1019.4 hPa | 0 mm | - | 40 W/m² | - |
| 1777896361 | 8.89° C | 85% | 1019.3 hPa | 0 mm | - | 39 W/m² | - |
| 1777896059 | 8.33° C | 87% | 1019.3 hPa | 0 mm | - | 38 W/m² | - |
| 1777895756 | 7.78° C | 89% | 1018.9 hPa | 0 mm | - | 36 W/m² | - |
* Rain latest hour (hover to see other rain measurements)
** Current wind speed in m/s (hover to see current wind gust speed)